FDB829 OMDB-OEJN

Flight info

Callsign FDB829
Flight time 2h 34m
Altitude 36000
Route KUTLI L519 ATUDO DCT GOLGU DCT RIBOT DCT MIGMA DCT ITRUX/N0462F380 Y511 ASMIS T218 IMGUT DCT VEMEM
Aircraft B38M/M-SDE1FGHILORVWXY/HB1

Departure

Time 2026-05-07 11:49
Airport Dubai International Airport (OMDB)

Arrival

Time 2026-05-07 14:23
Airport King Abdulaziz International Airport (OEJN)
Time Latitude Longitude Altitude Speed Heading
2026-05-07 11:04 25.26695 55.35373 26 ft 0 kts 31°
2026-05-07 11:18 25.26694 55.35373 24 ft 0 kts 31°
2026-05-07 11:34 25.26694 55.35372 24 ft 1 kts 31°
2026-05-07 11:34 25.26673 55.35358 26 ft 4 kts 31°
2026-05-07 11:34 25.26654 55.35346 25 ft 4 kts 33°
2026-05-07 11:35 25.26636 55.35327 28 ft 4 kts 64°
2026-05-07 11:35 25.26635 55.35305 28 ft 3 kts 122°
2026-05-07 11:35 25.26647 55.35284 26 ft 1 kts 122°
2026-05-07 11:35 25.26647 55.35283 26 ft 2 kts 122°
2026-05-07 11:39 25.26644 55.35290 26 ft 2 kts 122°
2026-05-07 11:39 25.26632 55.35310 28 ft 4 kts 122°
2026-05-07 11:39 25.26613 55.35345 25 ft 6 kts 122°
2026-05-07 11:39 25.26586 55.35392 26 ft 8 kts 122°
2026-05-07 11:40 25.26552 55.35453 25 ft 10 kts 122°
2026-05-07 11:40 25.26515 55.35519 25 ft 10 kts 122°
2026-05-07 11:40 25.26476 55.35589 27 ft 12 kts 122°
2026-05-07 11:40 25.26430 55.35671 26 ft 13 kts 122°
2026-05-07 11:41 25.26379 55.35762 26 ft 14 kts 122°
2026-05-07 11:41 25.26324 55.35859 25 ft 16 kts 122°
2026-05-07 11:41 25.26267 55.35961 25 ft 15 kts 122°
2026-05-07 11:41 25.26210 55.36063 27 ft 16 kts 122°
2026-05-07 11:42 25.26155 55.36161 26 ft 11 kts 122°
2026-05-07 11:42 25.26111 55.36239 26 ft 13 kts 122°
2026-05-07 11:42 25.26061 55.36327 24 ft 15 kts 122°
2026-05-07 11:42 25.26005 55.36428 25 ft 16 kts 122°
2026-05-07 11:43 25.25942 55.36539 27 ft 18 kts 122°
2026-05-07 11:43 25.25881 55.36648 25 ft 18 kts 122°
2026-05-07 11:43 25.25818 55.36759 24 ft 18 kts 122°
2026-05-07 11:43 25.25753 55.36875 24 ft 16 kts 121°
2026-05-07 11:44 25.25690 55.36987 25 ft 17 kts 122°
2026-05-07 11:44 25.25625 55.37102 26 ft 17 kts 122°
2026-05-07 11:44 25.25566 55.37207 24 ft 17 kts 122°
2026-05-07 11:44 25.25504 55.37318 25 ft 17 kts 122°
2026-05-07 11:45 25.25439 55.37431 24 ft 18 kts 122°
2026-05-07 11:45 25.25370 55.37556 25 ft 20 kts 122°
2026-05-07 11:45 25.25295 55.37689 27 ft 19 kts 122°
2026-05-07 11:45 25.25230 55.37803 24 ft 16 kts 122°
2026-05-07 11:46 25.25169 55.37912 25 ft 17 kts 122°
2026-05-07 11:46 25.25116 55.38008 25 ft 15 kts 122°
2026-05-07 11:46 25.25060 55.38106 28 ft 13 kts 122°
2026-05-07 11:46 25.25014 55.38165 26 ft 10 kts 159°
2026-05-07 11:47 25.24947 55.38144 24 ft 11 kts 209°
2026-05-07 11:47 25.24882 55.38101 27 ft 11 kts 211°
2026-05-07 11:47 25.24832 55.38068 28 ft 7 kts 211°
2026-05-07 11:47 25.24806 55.38037 28 ft 2 kts 267°
2026-05-07 11:48 25.24807 55.38032 27 ft 2 kts 283°
2026-05-07 11:48 25.24896 55.37863 28 ft 53 kts 302°
2026-05-07 11:48 25.25228 55.37262 30 ft 129 kts 301°
2026-05-07 11:49 25.25798 55.36236 267 ft 172 kts 301°
2026-05-07 11:49 25.26480 55.35029 847 ft 195 kts 299°
2026-05-07 11:49 25.27170 55.33794 1848 ft 188 kts 296°
2026-05-07 11:49 25.27892 55.32472 2561 ft 210 kts 298°
2026-05-07 11:50 25.28664 55.31064 3423 ft 222 kts 297°
2026-05-07 11:50 25.29063 55.29407 4207 ft 229 kts 269°
2026-05-07 11:50 25.28685 55.27671 5011 ft 238 kts 247°
2026-05-07 11:50 25.28000 55.25964 5764 ft 247 kts 247°
2026-05-07 11:51 25.27276 55.24194 6468 ft 257 kts 247°
2026-05-07 11:51 25.26537 55.22411 7288 ft 258 kts 246°
2026-05-07 11:51 25.25781 55.20607 8136 ft 260 kts 245°
2026-05-07 11:51 25.25006 55.18770 8937 ft 264 kts 245°
2026-05-07 11:52 25.24226 55.16934 9817 ft 265 kts 243°
2026-05-07 11:52 25.23299 55.15092 10330 ft 281 kts 238°
2026-05-07 11:52 25.22305 55.13189 10930 ft 295 kts 239°
2026-05-07 11:52 25.21265 55.11178 11338 ft 314 kts 238°
2026-05-07 11:53 25.20174 55.08990 11694 ft 335 kts 244°
2026-05-07 11:53 25.19269 55.06547 12131 ft 350 kts 246°
2026-05-07 11:53 25.18341 55.04039 12817 ft 354 kts 246°
2026-05-07 11:53 25.17390 55.01509 13581 ft 358 kts 245°
2026-05-07 11:54 25.16421 54.98958 14220 ft 361 kts 245°
2026-05-07 11:54 25.15265 54.96534 14842 ft 362 kts 231°
2026-05-07 11:54 25.13461 54.94597 15479 ft 362 kts 213°
2026-05-07 11:54 25.11198 54.93381 16019 ft 365 kts 195°
2026-05-07 11:55 25.08680 54.92957 16625 ft 366 kts 182°
2026-05-07 11:55 25.06147 54.92850 17207 ft 371 kts 181°
2026-05-07 11:55 25.03541 54.92788 17679 ft 377 kts 180°
2026-05-07 11:55 25.00905 54.92907 18257 ft 380 kts 176°
2026-05-07 11:56 24.98253 54.93071 18734 ft 383 kts 177°
2026-05-07 11:56 24.95571 54.93239 19252 ft 386 kts 177°
2026-05-07 11:56 24.92873 54.93409 19736 ft 389 kts 177°
2026-05-07 11:56 24.90190 54.93579 20202 ft 393 kts 177°
2026-05-07 11:57 24.87445 54.93544 20659 ft 395 kts 189°
2026-05-07 11:57 24.84822 54.92646 21199 ft 395 kts 206°
2026-05-07 11:57 24.82352 54.91281 21597 ft 400 kts 207°
2026-05-07 11:57 24.79871 54.89860 22092 ft 402 kts 208°
2026-05-07 11:58 24.77382 54.88408 22548 ft 405 kts 208°
2026-05-07 11:58 24.74882 54.86932 23039 ft 407 kts 209°
2026-05-07 11:58 24.72411 54.85464 23426 ft 411 kts 209°
2026-05-07 11:58 24.69880 54.83956 23792 ft 414 kts 210°
2026-05-07 11:59 24.67374 54.82370 24240 ft 413 kts 212°
2026-05-07 11:59 24.64888 54.80775 24679 ft 413 kts 212°
2026-05-07 11:59 24.62424 54.79203 25051 ft 416 kts 211°
2026-05-07 11:59 24.59910 54.77603 25407 ft 418 kts 211°
2026-05-07 12:00 24.57383 54.75995 25756 ft 421 kts 211°
2026-05-07 12:00 24.54837 54.74377 26107 ft 423 kts 212°
2026-05-07 12:00 24.52287 54.72740 26505 ft 424 kts 212°
2026-05-07 12:00 24.49740 54.71105 26862 ft 426 kts 212°
2026-05-07 12:01 24.47171 54.69457 27226 ft 427 kts 212°
2026-05-07 12:01 24.44598 54.67807 27580 ft 429 kts 212°
2026-05-07 12:01 24.42049 54.66176 27928 ft 431 kts 212°
2026-05-07 12:01 24.39443 54.64509 28274 ft 432 kts 212°
2026-05-07 12:02 24.36837 54.62843 28616 ft 434 kts 212°
2026-05-07 12:02 24.34213 54.61167 28956 ft 435 kts 213°
2026-05-07 12:02 24.31620 54.59510 29270 ft 437 kts 213°
2026-05-07 12:02 24.29199 54.57516 29561 ft 434 kts 228°
2026-05-07 12:03 24.27365 54.54892 29865 ft 432 kts 239°
2026-05-07 12:03 24.25780 54.52073 30068 ft 435 kts 240°
2026-05-07 12:03 24.24218 54.49220 30291 ft 438 kts 240°
2026-05-07 12:03 24.22686 54.46371 30512 ft 440 kts 240°
2026-05-07 12:04 24.21140 54.43468 30762 ft 441 kts 241°
2026-05-07 12:04 24.19593 54.40544 31005 ft 443 kts 241°
2026-05-07 12:04 24.18043 54.37612 31222 ft 445 kts 241°
2026-05-07 12:04 24.16490 54.34671 31457 ft 446 kts 241°
2026-05-07 12:05 24.14935 54.31731 31720 ft 447 kts 241°
2026-05-07 12:05 24.13372 54.28777 32025 ft 447 kts 241°
2026-05-07 12:05 24.11814 54.25834 32332 ft 447 kts 241°
2026-05-07 12:05 24.10258 54.22897 32656 ft 446 kts 241°
2026-05-07 12:06 24.08720 54.19994 32968 ft 445 kts 241°
2026-05-07 12:06 24.07163 54.17058 33275 ft 445 kts 241°
2026-05-07 12:06 24.05606 54.14123 33596 ft 444 kts 241°
2026-05-07 12:06 24.04050 54.11193 33895 ft 444 kts 241°
2026-05-07 12:07 24.02517 54.08307 34159 ft 443 kts 241°
2026-05-07 12:07 24.00971 54.05399 34430 ft 442 kts 241°
2026-05-07 12:07 23.99422 54.02485 34723 ft 441 kts 241°
2026-05-07 12:07 23.97883 53.99594 35020 ft 439 kts 240°
2026-05-07 12:08 23.96344 53.96705 35289 ft 438 kts 240°
2026-05-07 12:08 23.94810 53.93825 35554 ft 437 kts 240°
2026-05-07 12:08 23.93275 53.90946 35756 ft 438 kts 240°
2026-05-07 12:09 23.90227 53.85233 35776 ft 434 kts 240°
2026-05-07 12:09 23.87175 53.79521 35777 ft 435 kts 240°
2026-05-07 12:10 23.84138 53.73842 35778 ft 435 kts 240°
2026-05-07 12:10 23.81073 53.68118 35780 ft 435 kts 240°
2026-05-07 12:11 23.78030 53.62442 35775 ft 435 kts 240°
2026-05-07 12:11 23.74965 53.56731 35776 ft 435 kts 240°
2026-05-07 12:12 23.71892 53.51012 35769 ft 436 kts 240°
2026-05-07 12:12 23.68830 53.45320 35775 ft 437 kts 240°
2026-05-07 12:13 23.65740 53.39582 35778 ft 437 kts 240°
2026-05-07 12:13 23.62669 53.33886 35774 ft 437 kts 240°
2026-05-07 12:14 23.59575 53.28154 35775 ft 437 kts 240°
2026-05-07 12:14 23.56496 53.22458 35769 ft 437 kts 240°
2026-05-07 12:15 23.53393 53.16722 35781 ft 438 kts 240°
2026-05-07 12:15 23.50316 53.11041 35776 ft 438 kts 240°
2026-05-07 12:16 23.47215 53.05323 35777 ft 438 kts 240°
2026-05-07 12:16 23.44126 52.99633 35775 ft 438 kts 240°
2026-05-07 12:17 23.41025 52.93927 35774 ft 438 kts 240°
2026-05-07 12:17 23.37915 52.88212 35770 ft 438 kts 240°
2026-05-07 12:18 23.34809 52.82510 35775 ft 438 kts 240°
2026-05-07 12:18 23.31698 52.76805 35771 ft 438 kts 240°
2026-05-07 12:19 23.28602 52.71135 35771 ft 438 kts 240°
2026-05-07 12:19 23.25486 52.65432 35764 ft 438 kts 240°
2026-05-07 12:20 23.22368 52.59731 35763 ft 438 kts 240°
2026-05-07 12:20 23.19249 52.54038 35765 ft 438 kts 240°
2026-05-07 12:21 23.16890 52.48017 35775 ft 437 kts 251°
2026-05-07 12:21 23.14874 52.41766 35772 ft 438 kts 251°
2026-05-07 12:22 23.12896 52.35539 35759 ft 437 kts 251°
2026-05-07 12:22 23.10907 52.29270 35759 ft 438 kts 251°
2026-05-07 12:23 23.08927 52.23043 35762 ft 437 kts 251°
2026-05-07 12:23 23.06944 52.16814 35763 ft 437 kts 251°
2026-05-07 12:24 23.04966 52.10609 35765 ft 437 kts 251°
2026-05-07 12:24 23.02974 52.04370 35760 ft 437 kts 251°
2026-05-07 12:25 23.00976 51.98124 35752 ft 437 kts 251°
2026-05-07 12:25 22.98994 51.91933 35761 ft 437 kts 251°
2026-05-07 12:26 22.96991 51.85691 35767 ft 437 kts 251°
2026-05-07 12:26 22.95328 51.80513 35763 ft 437 kts 251°
2026-05-07 12:27 22.93000 51.73277 35767 ft 436 kts 251°
2026-05-07 12:27 22.91327 51.68086 35756 ft 436 kts 251°
2026-05-07 12:28 22.89320 51.61861 35752 ft 436 kts 251°
2026-05-07 12:28 22.87319 51.55670 35767 ft 436 kts 251°
2026-05-07 12:29 22.85313 51.49466 35770 ft 435 kts 251°
2026-05-07 12:29 22.84520 51.46306 35740 ft 435 kts 263°
2026-05-07 12:29 22.84400 51.43049 35782 ft 435 kts 267°
2026-05-07 12:30 22.84272 51.36508 35762 ft 436 kts 268°
2026-05-07 12:30 22.84209 51.29892 35759 ft 437 kts 268°
2026-05-07 12:31 22.84163 51.23302 35765 ft 437 kts 268°
2026-05-07 12:31 22.84116 51.16755 35766 ft 437 kts 268°
2026-05-07 12:32 22.84067 51.10161 35757 ft 437 kts 268°
2026-05-07 12:32 22.84014 51.03558 35763 ft 437 kts 268°
2026-05-07 12:33 22.83931 50.93705 35765 ft 437 kts 268°
2026-05-07 12:33 22.83872 50.87102 35769 ft 437 kts 268°
2026-05-07 12:34 22.83810 50.80547 35766 ft 436 kts 268°
2026-05-07 12:34 22.83746 50.73958 35764 ft 436 kts 268°
2026-05-07 12:35 22.83679 50.67374 35765 ft 436 kts 268°
2026-05-07 12:35 22.83609 50.60830 35762 ft 436 kts 268°
2026-05-07 12:36 22.83537 50.54252 35765 ft 436 kts 268°
2026-05-07 12:36 22.83462 50.47677 35768 ft 436 kts 268°
2026-05-07 12:37 22.83384 50.41136 35772 ft 436 kts 268°
2026-05-07 12:37 22.83303 50.34560 35781 ft 434 kts 268°
2026-05-07 12:38 22.83221 50.28046 35773 ft 432 kts 268°
2026-05-07 12:38 22.83136 50.21526 35773 ft 432 kts 267°
2026-05-07 12:39 22.83048 50.15040 35771 ft 432 kts 267°
2026-05-07 12:39 22.82958 50.08501 35767 ft 432 kts 267°
2026-05-07 12:40 22.82865 50.02013 35770 ft 432 kts 267°
2026-05-07 12:40 22.82769 49.95493 35772 ft 432 kts 267°
2026-05-07 12:41 22.82671 49.88974 35770 ft 431 kts 267°
2026-05-07 12:41 22.82570 49.82492 35772 ft 431 kts 267°
2026-05-07 12:42 22.82467 49.75983 35774 ft 431 kts 267°
2026-05-07 12:42 22.82361 49.69502 35772 ft 431 kts 267°
2026-05-07 12:43 22.82252 49.62991 35769 ft 431 kts 267°
2026-05-07 12:43 22.82141 49.56464 35772 ft 431 kts 267°
2026-05-07 12:44 22.82027 49.49985 35785 ft 431 kts 266°
2026-05-07 12:44 22.81911 49.43501 35776 ft 428 kts 266°
2026-05-07 12:45 22.81793 49.37080 35775 ft 428 kts 266°
2026-05-07 12:45 22.81672 49.30612 35773 ft 428 kts 266°
2026-05-07 12:46 22.81549 49.24187 35779 ft 429 kts 266°
2026-05-07 12:46 22.81422 49.17710 35776 ft 429 kts 266°
2026-05-07 12:47 22.81293 49.11239 35777 ft 429 kts 266°
2026-05-07 12:47 22.81162 49.04804 35783 ft 428 kts 266°
2026-05-07 12:48 22.81029 48.98371 35781 ft 428 kts 266°
2026-05-07 12:48 22.80892 48.91914 35782 ft 428 kts 266°
2026-05-07 12:49 22.80752 48.85451 35780 ft 428 kts 266°
2026-05-07 12:49 22.80612 48.79039 35785 ft 428 kts 266°
2026-05-07 12:50 22.80467 48.72583 35787 ft 428 kts 266°
2026-05-07 12:50 22.80320 48.66107 35788 ft 428 kts 266°
2026-05-07 12:51 22.80171 48.59702 35783 ft 426 kts 266°
2026-05-07 12:51 22.80020 48.53279 35788 ft 426 kts 266°
2026-05-07 12:52 22.79866 48.46842 35790 ft 426 kts 266°
2026-05-07 12:52 22.79710 48.40461 35794 ft 425 kts 266°
2026-05-07 12:53 22.79551 48.34042 35787 ft 425 kts 266°
2026-05-07 12:53 22.79391 48.27674 35791 ft 425 kts 266°
2026-05-07 12:54 22.79226 48.21251 35788 ft 425 kts 265°
2026-05-07 12:54 22.79061 48.14881 35789 ft 425 kts 265°
2026-05-07 12:55 22.78892 48.08467 35792 ft 425 kts 265°
2026-05-07 12:55 22.78721 48.02059 35789 ft 425 kts 265°
2026-05-07 12:56 22.78546 47.95650 35796 ft 425 kts 265°
2026-05-07 12:56 22.78371 47.89283 35796 ft 425 kts 265°
2026-05-07 12:57 22.78192 47.82876 35812 ft 425 kts 265°
2026-05-07 12:57 22.78010 47.76476 35799 ft 423 kts 265°
2026-05-07 12:58 22.77826 47.70086 35804 ft 424 kts 265°
2026-05-07 12:58 22.77641 47.63742 35810 ft 424 kts 265°
2026-05-07 12:59 22.77453 47.57362 35819 ft 424 kts 265°
2026-05-07 12:59 22.77262 47.50963 35815 ft 423 kts 265°
2026-05-07 13:00 22.77071 47.44609 35823 ft 424 kts 265°
2026-05-07 13:00 22.76875 47.38212 35826 ft 423 kts 265°
2026-05-07 13:01 22.76678 47.31861 35833 ft 424 kts 265°
2026-05-07 13:01 22.76478 47.25465 35841 ft 424 kts 265°
2026-05-07 13:02 22.76276 47.19100 35833 ft 424 kts 265°
2026-05-07 13:02 22.76633 47.12684 35844 ft 427 kts 271°
2026-05-07 13:03 22.77128 47.06299 35862 ft 427 kts 271°
2026-05-07 13:03 22.77634 46.99887 35850 ft 425 kts 271°
2026-05-07 13:04 22.78136 46.93496 35864 ft 426 kts 271°
2026-05-07 13:04 22.78634 46.87127 35856 ft 426 kts 271°
2026-05-07 13:05 22.79132 46.80723 35860 ft 425 kts 271°
2026-05-07 13:05 22.79624 46.74368 35861 ft 425 kts 271°
2026-05-07 13:06 22.80118 46.67960 35864 ft 426 kts 271°
2026-05-07 13:06 22.80607 46.61567 35875 ft 426 kts 271°
2026-05-07 13:07 22.81092 46.55197 35890 ft 425 kts 270°
2026-05-07 13:07 22.81577 46.48809 35912 ft 425 kts 270°
2026-05-07 13:08 22.82059 46.42430 35883 ft 422 kts 270°
2026-05-07 13:08 22.82532 46.36077 35901 ft 423 kts 270°
2026-05-07 13:09 22.83000 46.29766 35889 ft 422 kts 270°
2026-05-07 13:09 22.83469 46.23407 35891 ft 423 kts 270°
2026-05-07 13:10 22.83935 46.17052 35895 ft 422 kts 270°
2026-05-07 13:10 22.84395 46.10746 35898 ft 421 kts 270°
2026-05-07 13:11 22.84855 46.04411 35888 ft 421 kts 270°
2026-05-07 13:11 22.85085 46.01232 36044 ft 422 kts 270°
2026-05-07 13:11 22.85314 45.98050 36311 ft 422 kts 270°
2026-05-07 13:12 22.85542 45.94882 36591 ft 421 kts 270°
2026-05-07 13:12 22.85768 45.91726 36908 ft 419 kts 270°
2026-05-07 13:12 22.85993 45.88579 37232 ft 417 kts 270°
2026-05-07 13:12 22.86217 45.85443 37532 ft 416 kts 270°
2026-05-07 13:13 22.86436 45.82357 37796 ft 414 kts 270°
2026-05-07 13:13 22.86657 45.79245 37906 ft 414 kts 270°
2026-05-07 13:13 22.87095 45.73027 37879 ft 410 kts 270°
2026-05-07 13:14 22.87526 45.66894 37880 ft 410 kts 270°
2026-05-07 13:14 22.87958 45.60710 37878 ft 410 kts 270°
2026-05-07 13:15 22.88314 45.55578 37879 ft 410 kts 270°
2026-05-07 13:15 22.88741 45.49403 37878 ft 410 kts 270°
2026-05-07 13:16 22.89164 45.43233 37887 ft 410 kts 270°
2026-05-07 13:16 22.89584 45.37084 37913 ft 410 kts 269°
2026-05-07 13:17 22.90002 45.30932 37883 ft 406 kts 269°
2026-05-07 13:17 22.90416 45.24809 37894 ft 407 kts 269°
2026-05-07 13:18 22.90828 45.18675 37892 ft 407 kts 269°
2026-05-07 13:18 22.91235 45.12588 37894 ft 407 kts 269°
2026-05-07 13:19 22.91641 45.06451 37893 ft 407 kts 269°
2026-05-07 13:19 22.92043 45.00349 37897 ft 407 kts 269°
2026-05-07 13:20 22.92444 44.94225 37895 ft 407 kts 269°
2026-05-07 13:20 22.92842 44.88104 37897 ft 406 kts 269°
2026-05-07 13:21 22.93239 44.81980 37896 ft 407 kts 269°
2026-05-07 13:21 22.93632 44.75858 37894 ft 407 kts 269°
2026-05-07 13:22 22.94025 44.69726 37897 ft 407 kts 269°
2026-05-07 13:22 22.94023 44.63633 37922 ft 403 kts 263°
2026-05-07 13:23 22.93780 44.57598 37897 ft 402 kts 263°
2026-05-07 13:23 22.93519 44.51544 37895 ft 401 kts 263°
2026-05-07 13:24 22.93253 44.45482 37889 ft 402 kts 263°
2026-05-07 13:24 22.92985 44.39424 37902 ft 401 kts 263°
2026-05-07 13:25 22.92716 44.33380 37891 ft 401 kts 263°
2026-05-07 13:25 22.92445 44.27362 37888 ft 401 kts 263°
2026-05-07 13:26 22.92170 44.21316 37887 ft 401 kts 262°
2026-05-07 13:26 22.91895 44.15293 37888 ft 402 kts 262°
2026-05-07 13:27 22.91615 44.09239 37892 ft 402 kts 262°
2026-05-07 13:27 22.91333 44.03172 37884 ft 402 kts 262°
2026-05-07 13:28 22.91049 43.97108 37894 ft 402 kts 262°
2026-05-07 13:28 22.90761 43.91033 37873 ft 402 kts 262°
2026-05-07 13:29 22.90474 43.85007 37902 ft 403 kts 262°
2026-05-07 13:29 22.90182 43.78930 37907 ft 403 kts 262°
2026-05-07 13:30 22.89887 43.72833 37922 ft 403 kts 262°
2026-05-07 13:30 22.89592 43.66794 37923 ft 403 kts 262°
2026-05-07 13:31 22.89293 43.60719 37928 ft 403 kts 261°
2026-05-07 13:31 22.88993 43.54668 37936 ft 404 kts 261°
2026-05-07 13:32 22.88688 43.48567 37938 ft 404 kts 261°
2026-05-07 13:32 22.88381 43.42471 37965 ft 404 kts 261°
2026-05-07 13:33 22.88075 43.36434 37943 ft 402 kts 261°
2026-05-07 13:33 22.87766 43.30381 37937 ft 402 kts 261°
2026-05-07 13:34 22.87297 43.21309 37988 ft 402 kts 261°
2026-05-07 13:35 22.86984 43.15277 37956 ft 399 kts 261°
2026-05-07 13:35 22.86668 43.09256 37971 ft 400 kts 261°
2026-05-07 13:36 22.86352 43.03269 37969 ft 399 kts 261°
2026-05-07 13:36 22.86032 42.97260 37972 ft 398 kts 261°
2026-05-07 13:37 22.85711 42.91268 37965 ft 397 kts 261°
2026-05-07 13:37 22.85390 42.85312 37975 ft 397 kts 261°
2026-05-07 13:38 22.85065 42.79323 37980 ft 397 kts 261°
2026-05-07 13:38 22.84737 42.73327 37985 ft 397 kts 261°
2026-05-07 13:39 22.84409 42.67374 37978 ft 398 kts 261°
2026-05-07 13:39 22.84074 42.61339 38010 ft 399 kts 261°
2026-05-07 13:40 22.83741 42.55377 37997 ft 398 kts 261°
2026-05-07 13:40 22.83404 42.49368 38011 ft 398 kts 261°
2026-05-07 13:41 22.83067 42.43412 38016 ft 398 kts 261°
2026-05-07 13:41 22.82725 42.37416 38016 ft 397 kts 260°
2026-05-07 13:42 22.82382 42.31437 38022 ft 397 kts 260°
2026-05-07 13:42 22.82040 42.25499 38034 ft 397 kts 260°
2026-05-07 13:43 22.81692 42.19513 38055 ft 397 kts 259°
2026-05-07 13:43 22.81344 42.13539 38032 ft 396 kts 260°
2026-05-07 13:44 22.80996 42.07610 38010 ft 397 kts 260°
2026-05-07 13:44 22.80642 42.01613 38042 ft 399 kts 260°
2026-05-07 13:45 22.80284 41.95595 38037 ft 399 kts 260°
2026-05-07 13:45 22.79899 41.89633 38036 ft 397 kts 258°
2026-05-07 13:46 22.79315 41.83676 38043 ft 397 kts 258°
2026-05-07 13:46 22.78751 41.77730 38034 ft 398 kts 258°
2026-05-07 13:47 22.78185 41.71760 38038 ft 397 kts 258°
2026-05-07 13:47 22.77618 41.65795 38047 ft 397 kts 257°
2026-05-07 13:48 22.77052 41.59873 38040 ft 397 kts 257°
2026-05-07 13:48 22.76482 41.53925 38048 ft 397 kts 257°
2026-05-07 13:49 22.75910 41.47975 38005 ft 396 kts 257°
2026-05-07 13:49 22.75336 41.42036 38037 ft 400 kts 257°
2026-05-07 13:50 22.74754 41.36031 38029 ft 399 kts 257°
2026-05-07 13:50 22.73811 41.30204 38010 ft 385 kts 243°
2026-05-07 13:51 22.71889 41.24759 38001 ft 387 kts 244°
2026-05-07 13:51 22.69931 41.19302 38020 ft 388 kts 244°
2026-05-07 13:52 22.67947 41.13870 38015 ft 388 kts 244°
2026-05-07 13:52 22.65971 41.08481 38013 ft 387 kts 243°
2026-05-07 13:53 22.63975 41.03046 37994 ft 388 kts 244°
2026-05-07 13:53 22.61984 40.97631 37748 ft 386 kts 244°
2026-05-07 13:53 22.60993 40.94937 37147 ft 384 kts 244°
2026-05-07 13:54 22.60010 40.92269 36741 ft 377 kts 244°
2026-05-07 13:54 22.59045 40.89652 36377 ft 373 kts 244°
2026-05-07 13:54 22.58069 40.87004 35892 ft 383 kts 244°
2026-05-07 13:54 22.57088 40.84344 35211 ft 386 kts 245°
2026-05-07 13:55 22.56087 40.81632 34532 ft 390 kts 245°
2026-05-07 13:55 22.55075 40.78893 33761 ft 392 kts 245°
2026-05-07 13:55 22.54056 40.76137 32957 ft 395 kts 246°
2026-05-07 13:55 22.53037 40.73381 32354 ft 393 kts 246°
2026-05-07 13:56 22.52023 40.70643 31865 ft 398 kts 246°
2026-05-07 13:56 22.50986 40.67841 31341 ft 402 kts 246°
2026-05-07 13:56 22.49940 40.65018 30789 ft 403 kts 246°
2026-05-07 13:56 22.48897 40.62204 30241 ft 402 kts 247°
2026-05-07 13:57 22.47860 40.59409 29611 ft 399 kts 247°
2026-05-07 13:57 22.46839 40.56660 29014 ft 396 kts 247°
2026-05-07 13:57 22.45816 40.53906 28492 ft 392 kts 247°
2026-05-07 13:57 22.44801 40.51177 27967 ft 389 kts 247°
2026-05-07 13:58 22.43795 40.48471 27455 ft 386 kts 247°
2026-05-07 13:58 22.42794 40.45779 26961 ft 383 kts 247°
2026-05-07 13:58 22.41801 40.43114 26426 ft 381 kts 247°
2026-05-07 13:58 22.40813 40.40461 25931 ft 379 kts 247°
2026-05-07 13:59 22.39842 40.37857 25432 ft 378 kts 247°
2026-05-07 13:59 22.38859 40.35221 24942 ft 377 kts 247°
2026-05-07 13:59 22.37878 40.32592 24443 ft 376 kts 247°
2026-05-07 13:59 22.36902 40.29975 23955 ft 375 kts 248°
2026-05-07 14:00 22.35922 40.27354 23440 ft 375 kts 248°
2026-05-07 14:00 22.34945 40.24742 22883 ft 374 kts 247°
2026-05-07 14:00 22.33974 40.22146 22390 ft 372 kts 247°
2026-05-07 14:00 22.33021 40.19598 21922 ft 369 kts 247°
2026-05-07 14:01 22.32060 40.17034 21469 ft 367 kts 247°
2026-05-07 14:01 22.31104 40.14483 21015 ft 365 kts 247°
2026-05-07 14:01 22.30153 40.11943 20560 ft 363 kts 247°
2026-05-07 14:01 22.29206 40.09418 20111 ft 361 kts 247°
2026-05-07 14:02 22.28264 40.06907 19674 ft 359 kts 246°
2026-05-07 14:02 22.27643 40.05251 19395 ft 358 kts 246°
2026-05-07 14:02 22.26350 40.01978 18781 ft 356 kts 239°
2026-05-07 14:02 22.24994 39.99742 18343 ft 354 kts 236°
2026-05-07 14:03 22.24097 39.98268 18031 ft 354 kts 236°
2026-05-07 14:03 22.22313 39.95336 17654 ft 344 kts 236°
2026-05-07 14:03 22.21008 39.93198 17419 ft 337 kts 236°
2026-05-07 14:03 22.20145 39.91786 17296 ft 331 kts 236°
2026-05-07 14:04 22.18895 39.89740 17130 ft 322 kts 236°
2026-05-07 14:04 22.17693 39.87772 17022 ft 311 kts 236°
2026-05-07 14:04 22.16518 39.85850 16886 ft 303 kts 236°
2026-05-07 14:04 22.15350 39.83942 16741 ft 304 kts 236°
2026-05-07 14:05 22.14179 39.82028 16636 ft 305 kts 236°
2026-05-07 14:05 22.13010 39.80117 16539 ft 304 kts 236°
2026-05-07 14:05 22.11862 39.78242 16435 ft 302 kts 236°
2026-05-07 14:05 22.10701 39.76348 16330 ft 301 kts 236°
2026-05-07 14:06 22.09541 39.74454 16210 ft 301 kts 236°
2026-05-07 14:06 22.08400 39.72592 16112 ft 300 kts 236°
2026-05-07 14:06 22.07248 39.70715 16014 ft 300 kts 236°
2026-05-07 14:06 22.06092 39.68830 15907 ft 300 kts 236°
2026-05-07 14:07 22.04936 39.66946 15804 ft 300 kts 236°
2026-05-07 14:07 22.03800 39.65096 15709 ft 300 kts 236°
2026-05-07 14:07 22.02648 39.63218 15602 ft 299 kts 236°
2026-05-07 14:07 22.01499 39.61349 15500 ft 298 kts 236°
2026-05-07 14:08 22.00349 39.59478 15402 ft 298 kts 236°
2026-05-07 14:08 21.99202 39.57610 15291 ft 298 kts 236°
2026-05-07 14:08 21.98062 39.55755 15195 ft 296 kts 236°
2026-05-07 14:08 21.96929 39.53914 15098 ft 295 kts 235°
2026-05-07 14:09 21.95807 39.52090 14974 ft 294 kts 236°
2026-05-07 14:09 21.94675 39.50250 14889 ft 294 kts 236°
2026-05-07 14:09 21.93705 39.48275 14407 ft 301 kts 244°
2026-05-07 14:09 21.92834 39.46230 14029 ft 301 kts 243°
2026-05-07 14:10 21.91937 39.44179 13636 ft 302 kts 243°
2026-05-07 14:10 21.91047 39.42168 13484 ft 291 kts 243°
2026-05-07 14:10 21.90193 39.40254 13292 ft 282 kts 242°
2026-05-07 14:10 21.89349 39.38376 13106 ft 273 kts 243°
2026-05-07 14:11 21.88532 39.36559 12871 ft 266 kts 243°
2026-05-07 14:11 21.87725 39.34768 12540 ft 261 kts 243°
2026-05-07 14:11 21.86950 39.33048 12285 ft 251 kts 242°
2026-05-07 14:11 21.86202 39.31390 12023 ft 241 kts 243°
2026-05-07 14:12 21.85477 39.29783 11630 ft 237 kts 243°
2026-05-07 14:12 21.84762 39.28199 11185 ft 238 kts 243°
2026-05-07 14:12 21.84038 39.26597 10786 ft 236 kts 243°
2026-05-07 14:12 21.83321 39.25009 10422 ft 233 kts 243°
2026-05-07 14:13 21.82417 39.23591 9979 ft 234 kts 222°
2026-05-07 14:13 21.80987 39.22790 9594 ft 236 kts 196°
2026-05-07 14:13 21.79337 39.22813 9165 ft 242 kts 169°
2026-05-07 14:13 21.77722 39.23401 8713 ft 244 kts 165°
2026-05-07 14:14 21.76120 39.24018 8291 ft 244 kts 164°
2026-05-07 14:14 21.74544 39.24630 7878 ft 244 kts 163°
2026-05-07 14:14 21.72944 39.25255 7483 ft 243 kts 162°
2026-05-07 14:14 21.71356 39.25880 7099 ft 242 kts 161°
2026-05-07 14:15 21.69772 39.26504 6702 ft 242 kts 162°
2026-05-07 14:15 21.68187 39.27130 6311 ft 242 kts 162°
2026-05-07 14:15 21.66605 39.27754 5911 ft 241 kts 161°
2026-05-07 14:15 21.65063 39.28364 5597 ft 235 kts 161°
2026-05-07 14:16 21.63537 39.28968 5242 ft 232 kts 160°
2026-05-07 14:16 21.62020 39.29561 4877 ft 229 kts 161°
2026-05-07 14:16 21.60562 39.30133 4631 ft 216 kts 160°
2026-05-07 14:16 21.59202 39.30664 4387 ft 205 kts 161°
2026-05-07 14:17 21.57897 39.31176 4123 ft 194 kts 161°
2026-05-07 14:17 21.56654 39.31664 3831 ft 187 kts 160°
2026-05-07 14:17 21.55394 39.31917 3436 ft 186 kts 184°
2026-05-07 14:17 21.54169 39.31529 3089 ft 186 kts 209°
2026-05-07 14:18 21.53202 39.30611 2690 ft 188 kts 234°
2026-05-07 14:18 21.52587 39.29364 2331 ft 188 kts 247°
2026-05-07 14:18 21.52069 39.28062 2145 ft 191 kts 249°
2026-05-07 14:18 21.51651 39.26715 1913 ft 186 kts 268°
2026-05-07 14:19 21.51808 39.25393 1543 ft 174 kts 297°
2026-05-07 14:19 21.52463 39.24360 1447 ft 169 kts 320°
2026-05-07 14:19 21.53436 39.23668 1430 ft 170 kts 334°
2026-05-07 14:19 21.54426 39.23050 1433 ft 156 kts 330°
2026-05-07 14:20 21.55388 39.22534 1430 ft 153 kts 336°
2026-05-07 14:20 21.56373 39.22112 1418 ft 153 kts 339°
2026-05-07 14:20 21.57377 39.21713 1393 ft 155 kts 342°
2026-05-07 14:20 21.58398 39.21312 1358 ft 157 kts 341°
2026-05-07 14:21 21.59411 39.20911 1389 ft 154 kts 341°
2026-05-07 14:21 21.60379 39.20529 1283 ft 147 kts 342°
2026-05-07 14:21 21.61318 39.20156 1174 ft 140 kts 342°
2026-05-07 14:21 21.62222 39.19800 984 ft 137 kts 342°
2026-05-07 14:22 21.63120 39.19446 796 ft 139 kts 341°
2026-05-07 14:22 21.64025 39.19075 665 ft 138 kts 339°
2026-05-07 14:22 21.64936 39.18732 508 ft 139 kts 339°
2026-05-07 14:22 21.65820 39.18393 294 ft 135 kts 335°
2026-05-07 14:23 21.66691 39.18024 114 ft 134 kts 340°
2026-05-07 14:23 21.67539 39.17696 36 ft 119 kts 340°
2026-05-07 14:23 21.68156 39.17454 31 ft 62 kts 340°
2026-05-07 14:23 21.68439 39.17343 28 ft 32 kts 340°
2026-05-07 14:24 21.68611 39.17276 29 ft 20 kts 339°
2026-05-07 14:24 21.68742 39.17215 28 ft 21 kts 329°
2026-05-07 14:24 21.68853 39.17112 31 ft 21 kts 309°
2026-05-07 14:24 21.68895 39.17060 32 ft 6 kts 311°
2026-05-07 14:25 21.68927 39.17021 32 ft 9 kts 311°
2026-05-07 14:25 21.68970 39.16965 32 ft 11 kts 309°
2026-05-07 14:25 21.69023 39.16896 32 ft 13 kts 316°
2026-05-07 14:25 21.69104 39.16845 33 ft 13 kts 337°
2026-05-07 14:26 21.69197 39.16808 30 ft 15 kts 340°
2026-05-07 14:26 21.69248 39.16763 29 ft 11 kts 285°
2026-05-07 14:26 21.69226 39.16673 28 ft 14 kts 249°
2026-05-07 14:26 21.69190 39.16569 28 ft 16 kts 249°
2026-05-07 14:27 21.69149 39.16449 28 ft 18 kts 250°
2026-05-07 14:27 21.69102 39.16313 29 ft 20 kts 250°
2026-05-07 14:27 21.69052 39.16166 29 ft 22 kts 250°
2026-05-07 14:27 21.68995 39.16005 30 ft 24 kts 249°
2026-05-07 14:28 21.68938 39.15834 33 ft 24 kts 250°
2026-05-07 14:28 21.68895 39.15707 34 ft 13 kts 249°
2026-05-07 14:28 21.68868 39.15631 35 ft 7 kts 249°
2026-05-07 14:28 21.68861 39.15612 35 ft 3 kts 249°
2026-05-07 14:29 21.68852 39.15586 36 ft 4 kts 249°
2026-05-07 14:29 21.68838 39.15548 34 ft 7 kts 250°
2026-05-07 14:29 21.68817 39.15486 36 ft 10 kts 250°
2026-05-07 14:29 21.68788 39.15400 35 ft 14 kts 250°
2026-05-07 14:30 21.68757 39.15313 33 ft 12 kts 249°
2026-05-07 14:30 21.68725 39.15219 34 ft 14 kts 250°
2026-05-07 14:30 21.68685 39.15104 29 ft 19 kts 249°
2026-05-07 14:30 21.68638 39.14967 28 ft 19 kts 250°
2026-05-07 14:31 21.68598 39.14849 28 ft 15 kts 250°
2026-05-07 14:31 21.68558 39.14734 26 ft 17 kts 250°
2026-05-07 14:31 21.68516 39.14610 25 ft 20 kts 249°
2026-05-07 14:31 21.68469 39.14476 27 ft 16 kts 249°
2026-05-07 14:32 21.68428 39.14359 25 ft 18 kts 250°
2026-05-07 14:32 21.68381 39.14222 25 ft 20 kts 250°
2026-05-07 14:32 21.68336 39.14088 25 ft 18 kts 250°
2026-05-07 14:32 21.68292 39.13965 26 ft 14 kts 250°
2026-05-07 14:33 21.68262 39.13877 26 ft 11 kts 250°
2026-05-07 14:33 21.68213 39.13820 27 ft 11 kts 185°
2026-05-07 14:33 21.68144 39.13841 29 ft 11 kts 160°
2026-05-07 14:33 21.68069 39.13870 30 ft 12 kts 161°
2026-05-07 14:34 21.67982 39.13904 29 ft 14 kts 160°
2026-05-07 14:34 21.67916 39.13930 30 ft 11 kts 160°
2026-05-07 14:34 21.67875 39.13993 30 ft 12 kts 80°
2026-05-07 14:34 21.67904 39.14083 30 ft 13 kts 71°
2026-05-07 14:35 21.67938 39.14180 30 ft 14 kts 69°
2026-05-07 14:35 21.67957 39.14249 30 ft 8 kts 94°
2026-05-07 14:35 21.67919 39.14292 30 ft 10 kts 159°
2026-05-07 14:35 21.67848 39.14322 30 ft 12 kts 160°
2026-05-07 14:36 21.67768 39.14352 30 ft 13 kts 160°
2026-05-07 14:36 21.67691 39.14383 30 ft 13 kts 160°
2026-05-07 14:36 21.67611 39.14414 30 ft 12 kts 160°
2026-05-07 14:36 21.67531 39.14446 30 ft 13 kts 160°
2026-05-07 14:37 21.67456 39.14475 30 ft 11 kts 160°
2026-05-07 14:37 21.67391 39.14541 30 ft 7 kts 109°
2026-05-07 14:37 21.67384 39.14562 30 ft 3 kts 109°
2026-05-07 14:38 21.67379 39.14577 30 ft 1 kts 109°
2026-05-07 14:38 21.67375 39.14590 30 ft 0 kts 109°
2026-05-07 14:38 21.67373 39.14596 30 ft 0 kts 109°